contact:dominique.lefevre@mio.osupytheas.fr, maurice.libes@osupytheas.fr, didier.mallarino@osupytheas.fr
Project:EMSO http://www.emso-fr.org/EMSO-France
Depth: 2436.0 m
Title:EMSO Ligure Ouest : Data MII capteur AQUADOPP
Date,Latitude,Longitude,X_East,Y_North,Z_Up,Amplitude_X,Amplitude_Y,Amplitude_Z,Batterie,SoundSpeed,Heading,Pitch,Roll,Pressure,TIS,Speed,Direction
, degrees North, degrees East, m.s-1, m.s-1,m.s-1, 1, 1, 1, Volt, m.s-1, degree, degree, degree, dbar, degree_C, m.s-1, degree
2019-08-02T00:00:41,42.805,6.029,-0.019,-0.02,-0.038,103.0,108.0,100.0,13.4,1505.4,326.9,-0.7,1.9,2470.052,13.34,0.027,223.5
2019-08-02T00:03:42,42.805,6.029,-0.006,-0.008,-0.069,104.0,106.0,99.0,13.3,1505.4,323.9,-0.7,1.8,2470.073,13.34,0.01,216.9
2019-08-02T00:06:43,42.805,6.029,-0.025,-0.007,-0.028,103.0,106.0,99.0,13.4,1505.4,324.7,-0.7,1.8,2470.047,13.34,0.025,254.4
2019-08-02T00:09:44,42.805,6.029,-0.042,-0.004,-0.049,101.0,106.0,99.0,13.4,1505.4,326.9,-0.7,1.9,2470.089,13.34,0.042,264.6
2019-08-02T00:12:45,42.805,6.029,-0.007,-0.021,-0.022,103.0,106.0,99.0,13.4,1505.4,323.6,-0.7,1.9,2470.052,13.34,0.022,198.4
2019-08-02T00:15:46,42.805,6.029,-0.041,-0.002,-0.039,104.0,106.0,99.0,13.3,1505.4,325.4,-0.7,1.9,2470.027,13.34,0.041,267.2
2019-08-02T00:18:47,42.805,6.029,-0.016,-0.019,-0.019,103.0,108.0,98.0,13.3,1505.4,326.7,-0.7,1.8,2470.066,13.34,0.024,220.1
2019-08-02T00:21:48,42.805,6.029,0.0,-0.008,0.004,102.0,106.0,99.0,13.4,1505.4,327.7,-0.7,1.8,2470.068,13.34,0.008,180.0
2019-08-02T00:24:49,42.805,6.029,-0.027,-0.007,-0.018,101.0,106.0,101.0,13.4,1505.3,326.8,-0.7,1.9,2470.058,13.33,0.027,255.5
2019-08-02T00:27:50,42.805,6.029,-0.043,-0.019,-0.056,103.0,106.0,99.0,13.4,1505.3,325.7,-0.7,1.8,2470.042,13.33,0.047,246.2
2019-08-02T00:30:51,42.805,6.029,-0.027,-0.014,-0.047,104.0,106.0,99.0,13.4,1505.3,325.8,-0.7,1.8,2470.054,13.33,0.03,242.6
2019-08-02T00:33:52,42.805,6.029,-0.033,-0.004,-0.043,104.0,106.0,99.0,13.4,1505.3,325.3,-0.7,1.8,2470.053,13.33,0.033,263.1
2019-08-02T00:36:53,42.805,6.029,-0.04,-0.019,-0.057,103.0,106.0,99.0,13.4,1505.3,326.0,-0.7,1.9,2470.032,13.33,0.044,244.6
2019-08-02T00:39:54,42.805,6.029,-0.01,-0.011,-0.031,103.0,106.0,101.0,13.4,1505.3,324.3,-0.7,1.8,2469.991,13.33,0.014,222.3
2019-08-02T00:42:55,42.805,6.029,-0.038,0.002,-0.05,103.0,107.0,100.0,13.4,1505.3,324.8,-0.7,1.9,2470.024,13.33,0.038,273.0
2019-08-02T00:45:56,42.805,6.029,-0.051,-0.006,-0.062,103.0,106.0,100.0,13.4,1505.3,324.8,-0.7,1.9,2470.026,13.33,0.051,263.3
2019-08-02T00:48:57,42.805,6.029,-0.032,-0.007,-0.041,104.0,107.0,99.0,13.4,1505.3,327.0,-0.7,1.8,2470.033,13.33,0.032,257.7
2019-08-02T00:51:58,42.805,6.029,-0.014,-0.004,-0.027,104.0,107.0,99.0,13.4,1505.3,323.0,-0.7,1.8,2470.081,13.33,0.014,254.1
2019-08-02T00:54:59,42.805,6.029,-0.014,-0.017,-0.041,104.0,106.0,101.0,13.4,1505.3,326.2,-0.7,1.8,2470.036,13.33,0.022,219.5
2019-08-02T00:58:00,42.805,6.029,-0.024,-0.006,-0.054,105.0,106.0,99.0,13.3,1505.3,324.4,-0.7,1.8,2469.991,13.33,0.024,256.0
2019-08-02T01:01:01,42.805,6.029,-0.028,-0.018,-0.058,105.0,107.0,99.0,13.3,1505.3,328.2,-0.8,1.8,2470.037,13.33,0.033,237.3
2019-08-02T01:04:02,42.805,6.029,-0.016,0.001,-0.046,102.0,105.0,99.0,13.3,1505.3,326.9,-0.7,1.8,2470.026,13.33,0.016,273.6
2019-08-02T01:07:03,42.805,6.029,-0.011,-0.008,-0.009,103.0,106.0,98.0,13.4,1505.3,324.1,-0.7,1.8,2470.051,13.33,0.013,234.0
2019-08-02T01:10:04,42.805,6.029,-0.027,0.006,-0.038,104.0,105.0,99.0,13.4,1505.3,327.1,-0.7,1.8,2470.024,13.33,0.027,282.5
2019-08-02T01:13:05,42.805,6.029,-0.019,-0.018,-0.048,102.0,105.0,99.0,13.4,1505.3,325.6,-0.7,1.8,2469.99,13.33,0.026,226.5
2019-08-02T01:16:06,42.805,6.029,-0.024,0.0,-0.064,102.0,106.0,99.0,13.4,1505.3,322.8,-0.7,1.8,2469.987,13.33,0.024,270.0
2019-08-02T01:19:07,42.805,6.029,-0.034,0.0,-0.022,102.0,106.0,99.0,13.4,1505.3,328.5,-0.7,1.9,2469.996,13.33,0.034,270.0
2019-08-02T01:22:08,42.805,6.029,-0.044,-0.011,-0.04,103.0,106.0,100.0,13.4,1505.3,325.8,-0.7,1.8,2469.993,13.33,0.045,256.0
2019-08-02T01:25:09,42.805,6.029,-0.033,-0.001,-0.048,102.0,107.0,99.0,13.4,1505.3,324.7,-0.7,1.8,2470.019,13.33,0.033,268.3
2019-08-02T01:28:10,42.805,6.029,-0.025,0.002,-0.072,103.0,106.0,99.0,13.3,1505.3,327.9,-0.8,1.9,2469.998,13.33,0.025,274.6
2019-08-02T01:31:11,42.805,6.029,-0.017,-0.007,-0.027,102.0,106.0,99.0,13.4,1505.3,324.5,-0.7,1.8,2470.045,13.33,0.018,247.6
2019-08-02T01:34:12,42.805,6.029,-0.024,-0.018,-0.034,104.0,105.0,100.0,13.4,1505.3,327.3,-0.7,1.8,2469.982,13.33,0.03,233.1
2019-08-02T01:37:13,42.805,6.029,-0.041,-0.028,-0.016,103.0,107.0,100.0,13.4,1505.3,325.2,-0.7,1.8,2469.958,13.33,0.049,235.7
2019-08-02T01:40:14,42.805,6.029,0.0,-0.011,-0.013,102.0,107.0,99.0,13.4,1505.3,325.0,-0.7,1.9,2469.991,13.33,0.011,180.0
2019-08-02T01:43:15,42.805,6.029,-0.031,-0.014,-0.042,103.0,107.0,100.0,13.4,1505.3,323.8,-0.7,1.8,2470.009,13.33,0.034,245.7
2019-08-02T01:46:16,42.805,6.029,0.008,0.014,-0.015,102.0,106.0,101.0,13.3,1505.3,324.7,-0.7,1.8,2469.92,13.33,0.016,29.7
2019-08-02T01:49:17,42.805,6.029,0.019,0.0,0.004,104.0,106.0,100.0,13.4,1505.3,325.2,-0.7,1.8,2469.961,13.33,0.019,90.0
2019-08-02T01:52:18,42.805,6.029,-0.003,-0.006,0.002,102.0,106.0,100.0,13.4,1505.3,323.1,-0.7,1.8,2470.018,13.33,0.006,206.6
2019-08-02T01:55:19,42.805,6.029,-0.012,-0.003,-0.052,104.0,105.0,102.0,13.3,1505.3,326.6,-0.7,1.8,2469.956,13.33,0.012,256.0
2019-08-02T01:58:20,42.805,6.029,-0.006,0.014,-0.035,104.0,107.0,100.0,13.4,1505.3,325.9,-0.7,1.8,2469.97,13.33,0.015,336.8
2019-08-02T02:01:21,42.805,6.029,0.005,-0.01,0.001,103.0,108.0,102.0,13.4,1505.3,326.5,-0.7,1.8,2469.965,13.33,0.011,153.4
2019-08-02T02:04:22,42.805,6.029,0.025,-0.025,0.0,104.0,107.0,99.0,13.4,1505.3,327.0,-0.7,1.9,2469.94,13.33,0.035,135.0
2019-08-02T02:07:23,42.805,6.029,-0.004,-0.013,-0.027,103.0,107.0,101.0,13.4,1505.3,323.6,-0.7,1.8,2469.951,13.33,0.013,197.1
2019-08-02T02:10:24,42.805,6.029,-0.02,0.002,0.004,102.0,106.0,99.0,13.3,1505.3,328.1,-0.7,1.9,2470.034,13.33,0.02,275.7
2019-08-02T02:13:25,42.805,6.029,-0.035,-0.026,-0.051,104.0,105.0,100.0,13.4,1505.3,325.3,-0.7,1.8,2469.966,13.33,0.043,233.4
2019-08-02T02:16:26,42.805,6.029,-0.045,0.007,-0.064,104.0,107.0,101.0,13.4,1505.3,326.0,-0.7,1.8,2469.992,13.33,0.045,278.8
2019-08-02T02:19:27,42.805,6.029,-0.029,-0.023,-0.064,104.0,105.0,98.0,13.4,1505.3,325.1,-0.7,1.8,2469.961,13.33,0.037,231.6
2019-08-02T02:22:28,42.805,6.029,-0.01,-0.016,-0.042,102.0,105.0,101.0,13.4,1505.3,327.8,-0.7,1.8,2469.941,13.33,0.018,212.0
2019-08-02T02:25:29,42.805,6.029,-0.006,-0.03,-0.022,103.0,106.0,100.0,13.4,1505.3,323.0,-0.7,1.8,2469.944,13.33,0.03,191.3
2019-08-02T02:28:30,42.805,6.029,0.008,-0.024,-0.041,103.0,106.0,100.0,13.4,1505.3,326.4,-0.7,1.8,2469.941,13.33,0.025,161.6
2019-08-02T02:31:31,42.805,6.029,-0.016,-0.019,-0.033,104.0,107.0,99.0,13.3,1505.3,326.3,-0.7,1.9,2469.973,13.33,0.024,220.1
2019-08-02T02:34:32,42.805,6.029,-0.009,0.001,-0.038,103.0,107.0,100.0,13.3,1505.3,324.0,-0.7,1.8,2469.945,13.33,0.009,276.3
2019-08-02T02:37:33,42.805,6.029,-0.005,-0.018,-0.039,102.0,106.0,99.0,13.4,1505.3,326.5,-0.7,1.8,2469.987,13.33,0.018,195.5
2019-08-02T02:40:34,42.805,6.029,-0.012,-0.003,-0.049,103.0,107.0,98.0,13.4,1505.3,328.5,-0.7,1.8,2469.997,13.33,0.012,256.0
2019-08-02T02:43:35,42.805,6.029,-0.002,-0.005,-0.04,104.0,106.0,100.0,13.4,1505.3,328.0,-0.7,1.8,2469.964,13.33,0.005,201.8
2019-08-02T02:46:36,42.805,6.029,-0.002,-0.019,-0.079,104.0,106.0,100.0,13.3,1505.3,326.0,-0.7,1.8,2469.954,13.33,0.019,186.0
2019-08-02T02:49:37,42.805,6.029,-0.027,-0.014,-0.056,105.0,105.0,99.0,13.4,1505.3,323.0,-0.7,1.8,2469.955,13.33,0.03,242.6
2019-08-02T02:52:38,42.805,6.029,-0.018,0.004,-0.058,102.0,105.0,99.0,13.4,1505.3,325.8,-0.7,1.8,2469.944,13.33,0.018,282.5
2019-08-02T02:55:39,42.805,6.029,-0.033,-0.022,-0.073,102.0,106.0,100.0,13.4,1505.3,325.6,-0.7,1.9,2469.984,13.33,0.039,236.3
2019-08-02T02:58:40,42.805,6.029,-0.013,-0.018,-0.071,104.0,107.0,100.0,13.4,1505.3,323.5,-0.7,1.8,2469.969,13.33,0.022,215.8
2019-08-02T03:01:41,42.805,6.029,-0.017,-0.011,-0.014,105.0,106.0,100.0,13.4,1505.3,327.0,-0.7,1.8,2469.988,13.33,0.02,237.1
2019-08-02T03:04:42,42.805,6.029,-0.037,-0.008,-0.044,104.0,106.0,101.0,13.3,1505.3,326.9,-0.7,1.9,2469.996,13.33,0.037,257.8
2019-08-02T03:07:43,42.805,6.029,-0.001,-0.013,-0.007,103.0,107.0,101.0,13.4,1505.3,327.7,-0.7,1.8,2469.947,13.33,0.013,184.4
2019-08-02T03:10:44,42.805,6.029,-0.018,-0.014,-0.029,104.0,106.0,100.0,13.4,1505.3,325.6,-0.7,1.8,2469.955,13.33,0.022,232.1
2019-08-02T03:13:45,42.805,6.029,-0.007,-0.01,-0.046,104.0,107.0,100.0,13.4,1505.3,325.0,-0.7,1.8,2469.943,13.33,0.012,215.0
2019-08-02T03:16:46,42.805,6.029,-0.006,0.0,-0.025,104.0,106.0,99.0,13.4,1505.3,327.9,-0.7,1.8,2469.95,13.33,0.006,270.0
2019-08-02T03:19:47,42.805,6.029,-0.024,0.003,-0.049,104.0,105.0,98.0,13.4,1505.3,325.4,-0.7,1.8,2469.941,13.33,0.024,277.1
2019-08-02T03:22:48,42.805,6.029,-0.004,-0.015,-0.032,104.0,106.0,100.0,13.4,1505.3,326.0,-0.7,1.8,2469.946,13.33,0.015,194.9
2019-08-02T03:25:49,42.805,6.029,-0.046,-0.017,-0.046,104.0,106.0,100.0,13.4,1505.3,323.8,-0.7,1.8,2469.96,13.33,0.049,249.7
2019-08-02T03:28:50,42.805,6.029,-0.018,-0.016,-0.032,103.0,106.0,99.0,13.3,1505.3,326.7,-0.8,1.9,2469.987,13.33,0.024,228.4
2019-08-02T03:31:51,42.805,6.029,0.007,-0.003,0.006,101.0,106.0,100.0,13.4,1505.3,324.8,-0.7,1.8,2469.95,13.33,0.007,113.2
2019-08-02T03:34:52,42.805,6.029,0.007,-0.014,-0.034,106.0,106.0,101.0,13.3,1505.3,327.6,-0.7,1.8,2469.919,13.33,0.015,153.4
2019-08-02T03:37:53,42.805,6.029,-0.017,-0.007,-0.052,104.0,107.0,101.0,13.3,1505.3,323.7,-0.7,1.8,2469.953,13.33,0.018,247.6
2019-08-02T03:40:54,42.805,6.029,-0.03,-0.017,-0.041,102.0,107.0,99.0,13.3,1505.3,324.3,-0.7,1.8,2469.981,13.33,0.034,240.5
2019-08-02T03:43:55,42.805,6.029,0.022,-0.009,-0.012,103.0,107.0,98.0,13.3,1505.3,327.7,-0.7,1.8,2469.974,13.33,0.023,112.2
2019-08-02T03:46:56,42.805,6.029,-0.028,0.007,0.007,103.0,107.0,99.0,13.3,1505.3,324.4,-0.7,1.8,2469.973,13.33,0.028,284.0
2019-08-02T03:49:57,42.805,6.029,0.009,-0.01,0.002,102.0,107.0,99.0,13.4,1505.3,323.4,-0.7,1.8,2469.952,13.33,0.013,138.0
2019-08-02T03:52:58,42.805,6.029,0.0,0.002,-0.011,102.0,107.0,98.0,13.4,1505.3,324.6,-0.7,1.8,2469.982,13.33,0.002,0.0
2019-08-02T03:55:59,42.805,6.029,0.015,-0.016,0.004,103.0,106.0,99.0,13.3,1505.3,324.0,-0.7,1.9,2470.001,13.33,0.021,136.9
2019-08-02T03:59:00,42.805,6.029,0.009,-0.004,-0.016,103.0,107.0,99.0,13.3,1505.3,324.1,-0.8,1.8,2470.003,13.33,0.009,114.0
2019-08-02T04:02:01,42.805,6.029,0.007,-0.012,-0.029,103.0,107.0,99.0,13.4,1505.3,325.0,-0.7,1.9,2469.975,13.33,0.013,149.7
2019-08-02T04:05:02,42.805,6.029,0.006,-0.016,-0.026,105.0,106.0,99.0,13.4,1505.3,328.3,-0.7,1.8,2469.976,13.33,0.017,159.4
2019-08-02T04:08:03,42.805,6.029,-0.027,-0.017,-0.024,105.0,108.0,100.0,13.4,1505.3,323.2,-0.7,1.8,2470.015,13.33,0.031,237.8
2019-08-02T04:11:04,42.805,6.029,-0.014,-0.011,-0.003,105.0,107.0,102.0,13.3,1505.3,326.1,-0.7,1.9,2469.97,13.33,0.017,231.8
2019-08-02T04:14:05,42.805,6.029,0.0,-0.011,0.0,107.0,108.0,100.0,13.4,1505.3,326.4,-0.7,1.8,2469.963,13.33,0.011,180.0
2019-08-02T04:17:06,42.805,6.029,-0.015,-0.017,-0.028,105.0,107.0,102.0,13.3,1505.3,325.2,-0.7,1.8,2469.986,13.33,0.022,221.4
2019-08-02T04:20:07,42.805,6.029,-0.007,-0.017,-0.007,106.0,106.0,101.0,13.3,1505.3,327.5,-0.7,1.8,2470.008,13.33,0.018,202.4
2019-08-02T04:23:08,42.805,6.029,-0.041,0.0,-0.062,104.0,108.0,100.0,13.4,1505.3,324.9,-0.7,1.8,2470.046,13.33,0.041,270.0
2019-08-02T04:26:09,42.805,6.029,0.003,-0.004,-0.024,105.0,106.0,101.0,13.3,1505.3,326.5,-0.7,1.9,2469.999,13.33,0.005,143.1
2019-08-02T04:29:10,42.805,6.029,-0.036,0.002,-0.009,104.0,107.0,100.0,13.3,1505.3,327.9,-0.7,1.8,2469.984,13.33,0.036,273.2
2019-08-02T04:32:11,42.805,6.029,-0.034,0.006,-0.025,105.0,107.0,99.0,13.4,1505.3,323.5,-0.8,1.8,2469.973,13.33,0.034,280.0
2019-08-02T04:35:12,42.805,6.029,-0.037,0.007,-0.018,105.0,107.0,102.0,13.4,1505.3,326.6,-0.7,1.8,2469.978,13.33,0.037,280.7
2019-08-02T04:38:13,42.805,6.029,-0.045,-0.02,-0.046,105.0,108.0,99.0,13.4,1505.3,324.3,-0.7,1.8,2470.017,13.33,0.049,246.0
2019-08-02T04:41:14,42.805,6.029,-0.015,0.0,-0.018,104.0,107.0,98.0,13.3,1505.3,324.6,-0.8,1.9,2470.002,13.33,0.015,270.0
2019-08-02T04:44:15,42.805,6.029,-0.002,-0.008,0.008,103.0,106.0,99.0,13.3,1505.3,323.9,-0.7,1.8,2470.013,13.33,0.008,194.0
2019-08-02T04:47:16,42.805,6.029,-0.027,0.004,-0.012,102.0,107.0,98.0,13.3,1505.3,327.0,-0.7,1.9,2470.005,13.33,0.027,278.4
2019-08-02T04:50:17,42.805,6.029,-0.01,-0.007,-0.021,103.0,107.0,100.0,13.4,1505.3,326.5,-0.7,1.9,2470.014,13.33,0.012,235.0
2019-08-02T04:53:18,42.805,6.029,-0.026,-0.014,-0.04,105.0,107.0,99.0,13.3,1505.3,324.9,-0.7,1.8,2469.996,13.33,0.029,241.7
2019-08-02T04:56:19,42.805,6.029,0.007,0.002,0.012,102.0,107.0,100.0,13.3,1505.3,325.6,-0.7,1.8,2470.044,13.33,0.007,74.1
2019-08-02T04:59:20,42.805,6.029,-0.027,-0.021,-0.02,103.0,108.0,99.0,13.4,1505.3,325.8,-0.7,1.8,2470.015,13.33,0.034,232.1
2019-08-02T05:02:21,42.805,6.029,-0.022,0.002,-0.005,104.0,106.0,99.0,13.3,1505.3,325.0,-0.8,1.8,2470.035,13.33,0.022,275.2
2019-08-02T05:05:22,42.805,6.029,-0.013,-0.001,-0.026,102.0,109.0,100.0,13.4,1505.3,324.4,-0.7,1.8,2470.094,13.33,0.013,265.6
2019-08-02T05:08:23,42.805,6.029,-0.045,-0.008,-0.064,105.0,107.0,99.0,13.3,1505.3,326.1,-0.7,1.8,2470.039,13.33,0.045,259.9
2019-08-02T05:11:24,42.805,6.029,-0.007,-0.009,-0.003,103.0,107.0,100.0,13.3,1505.3,324.4,-0.8,1.8,2470.014,13.33,0.011,217.9
2019-08-02T05:14:25,42.805,6.029,-0.002,-0.009,-0.01,103.0,108.0,98.0,13.3,1505.3,326.4,-0.7,1.8,2470.037,13.33,0.009,192.5
2019-08-02T05:17:26,42.805,6.029,-0.042,-0.023,-0.043,103.0,107.0,98.0,13.4,1505.3,328.0,-0.7,1.8,2470.023,13.33,0.047,241.3
2019-08-02T05:20:27,42.805,6.029,-0.02,-0.016,-0.003,103.0,107.0,100.0,13.4,1505.3,325.9,-0.7,1.8,2470.052,13.33,0.025,231.3
2019-08-02T05:23:28,42.805,6.029,-0.014,-0.001,-0.03,101.0,105.0,99.0,13.4,1505.3,324.9,-0.7,1.8,2470.025,13.33,0.014,265.9
2019-08-02T05:26:29,42.805,6.029,-0.024,-0.001,-0.047,102.0,106.0,98.0,13.4,1505.3,323.7,-0.8,1.8,2470.02,13.33,0.024,267.6
2019-08-02T05:29:30,42.805,6.029,-0.02,-0.013,-0.028,101.0,105.0,99.0,13.4,1505.3,325.0,-0.7,1.8,2470.093,13.33,0.023,237.0
2019-08-02T05:32:31,42.805,6.029,-0.048,0.006,-0.022,102.0,107.0,98.0,13.3,1505.3,324.5,-0.7,1.9,2470.05,13.33,0.048,277.1
2019-08-02T05:35:32,42.805,6.029,-0.013,-0.014,-0.03,102.0,107.0,99.0,13.4,1505.3,324.8,-0.7,1.9,2470.051,13.33,0.019,222.9
2019-08-02T05:38:33,42.805,6.029,-0.019,-0.001,0.007,101.0,107.0,101.0,13.4,1505.3,324.7,-0.8,1.9,2470.049,13.33,0.019,267.0
2019-08-02T05:41:34,42.805,6.029,-0.005,0.024,0.017,101.0,107.0,96.0,13.4,1505.3,326.9,-0.7,1.8,2470.071,13.33,0.024,348.2
2019-08-02T05:44:35,42.805,6.029,0.019,-0.003,0.018,101.0,108.0,99.0,13.3,1505.3,327.5,-0.7,1.8,2470.093,13.33,0.019,99.0
2019-08-02T05:47:36,42.805,6.029,-0.01,0.003,-0.006,102.0,107.0,98.0,13.4,1505.3,326.1,-0.7,1.8,2470.094,13.33,0.01,286.7
2019-08-02T05:50:37,42.805,6.029,-0.037,-0.005,-0.04,102.0,106.0,98.0,13.4,1505.3,325.3,-0.7,1.8,2470.091,13.33,0.037,262.3
2019-08-02T05:53:38,42.805,6.029,-0.042,-0.009,-0.022,102.0,106.0,98.0,13.4,1505.3,325.5,-0.7,1.9,2470.068,13.33,0.042,257.9
2019-08-02T05:56:39,42.805,6.029,-0.014,-0.017,-0.008,104.0,107.0,100.0,13.3,1505.3,325.4,-0.7,1.8,2470.061,13.33,0.022,219.5
2019-08-02T05:59:40,42.805,6.029,0.003,-0.024,0.004,103.0,107.0,100.0,13.3,1505.3,325.7,-0.7,1.8,2470.094,13.33,0.024,172.9
2019-08-02T06:02:41,42.805,6.029,0.008,0.013,0.013,104.0,107.0,100.0,13.4,1505.3,326.1,-0.7,1.8,2470.1,13.33,0.015,31.6
2019-08-02T06:05:42,42.805,6.029,-0.005,-0.015,-0.001,104.0,108.0,99.0,13.4,1505.3,327.4,-0.7,1.8,2470.09,13.33,0.015,198.4
2019-08-02T06:08:43,42.805,6.029,-0.024,-0.004,-0.044,105.0,109.0,100.0,13.4,1505.3,326.4,-0.7,1.8,2470.092,13.33,0.024,260.5
2019-08-02T06:11:44,42.805,6.029,-0.015,-0.012,-0.027,106.0,108.0,98.0,13.4,1505.3,323.1,-0.7,1.8,2470.047,13.33,0.019,231.3
2019-08-02T06:14:45,42.805,6.029,-0.028,-0.022,-0.037,105.0,107.0,101.0,13.4,1505.3,325.9,-0.7,1.8,2470.075,13.33,0.035,231.8
2019-08-02T06:17:46,42.805,6.029,-0.006,-0.005,-0.023,104.0,107.0,99.0,13.4,1505.3,324.8,-0.7,1.9,2470.145,13.33,0.007,230.2
2019-08-02T06:20:47,42.805,6.029,-0.007,-0.019,-0.012,104.0,106.0,99.0,13.4,1505.3,325.2,-0.7,1.9,2470.144,13.33,0.02,200.2
2019-08-02T06:23:48,42.805,6.029,-0.034,-0.001,-0.037,103.0,108.0,99.0,13.4,1505.3,325.3,-0.7,1.9,2470.115,13.33,0.034,268.3
2019-08-02T06:26:49,42.805,6.029,-0.034,-0.018,-0.028,103.0,107.0,99.0,13.4,1505.3,325.1,-0.7,1.8,2470.086,13.33,0.038,242.1
2019-08-02T06:29:50,42.805,6.029,-0.03,-0.026,-0.003,104.0,106.0,100.0,13.4,1505.3,327.1,-0.7,1.8,2470.146,13.33,0.039,229.1
2019-08-02T06:32:51,42.805,6.029,-0.042,-0.02,-0.019,104.0,107.0,100.0,13.4,1505.3,325.5,-0.7,1.8,2470.065,13.33,0.046,244.5
2019-08-02T06:35:52,42.805,6.029,-0.02,-0.005,-0.035,103.0,106.0,101.0,13.4,1505.3,325.8,-0.7,1.8,2470.116,13.33,0.02,256.0
2019-08-02T06:38:53,42.805,6.029,-0.093,-0.007,-0.104,105.0,108.0,100.0,13.4,1505.3,326.3,-0.7,1.8,2470.167,13.33,0.093,265.7
2019-08-02T06:41:54,42.805,6.029,-0.011,0.004,0.001,105.0,106.0,99.0,13.3,1505.3,327.9,-0.7,1.8,2470.099,13.33,0.011,290.0
2019-08-02T06:44:55,42.805,6.029,0.007,-0.014,-0.004,105.0,105.0,100.0,13.4,1505.3,324.7,-0.7,1.8,2470.164,13.33,0.015,153.4
2019-08-02T06:47:56,42.805,6.029,-0.012,0.002,-0.002,105.0,106.0,100.0,13.3,1505.3,325.9,-0.7,1.8,2470.126,13.33,0.012,279.5
2019-08-02T06:50:57,42.805,6.029,-0.007,-0.02,-0.009,103.0,106.0,100.0,13.4,1505.3,324.1,-0.7,1.8,2470.094,13.33,0.021,199.3
2019-08-02T06:53:58,42.805,6.029,-0.017,-0.007,-0.009,103.0,107.0,99.0,13.3,1505.3,327.6,-0.7,1.8,2470.133,13.33,0.018,247.6
2019-08-02T06:56:59,42.805,6.029,-0.031,-0.032,-0.025,104.0,109.0,100.0,13.4,1505.3,324.4,-0.7,1.8,2470.127,13.33,0.044,224.1
2019-08-02T07:00:00,42.805,6.029,-0.024,-0.013,-0.016,106.0,108.0,101.0,13.4,1505.3,323.9,-0.7,1.8,2470.114,13.33,0.027,241.6
2019-08-02T07:03:01,42.805,6.029,0.001,-0.006,-0.034,105.0,110.0,102.0,13.4,1505.3,327.6,-0.7,1.8,2470.123,13.33,0.006,170.5
2019-08-02T07:06:02,42.805,6.029,0.01,-0.015,-0.003,105.0,109.0,100.0,13.4,1505.3,327.6,-0.7,1.9,2470.133,13.33,0.018,146.3
2019-08-02T07:09:03,42.805,6.029,-0.025,-0.004,-0.056,105.0,108.0,100.0,13.4,1505.3,325.0,-0.7,1.8,2470.121,13.33,0.025,260.9
2019-08-02T07:12:04,42.805,6.029,-0.006,-0.008,-0.044,105.0,107.0,100.0,13.4,1505.3,326.9,-0.7,1.8,2470.128,13.33,0.01,216.9
2019-08-02T07:15:05,42.805,6.029,-0.021,-0.038,-0.023,103.0,107.0,99.0,13.3,1505.3,324.1,-0.7,1.8,2470.151,13.33,0.043,208.9
2019-08-02T07:18:06,42.805,6.029,0.007,-0.028,-0.018,103.0,105.0,100.0,13.3,1505.3,325.3,-0.7,1.8,2470.102,13.33,0.028,166.0
2019-08-02T07:21:07,42.805,6.029,-0.013,-0.013,-0.007,103.0,107.0,99.0,13.4,1505.3,325.1,-0.7,1.9,2470.129,13.33,0.018,225.0
2019-08-02T07:24:08,42.805,6.029,-0.03,-0.025,-0.027,104.0,106.0,100.0,13.4,1505.3,324.2,-0.7,1.9,2470.106,13.33,0.039,230.2
2019-08-02T07:27:09,42.805,6.029,0.003,-0.024,-0.022,104.0,105.0,101.0,13.4,1505.3,325.1,-0.7,1.8,2470.128,13.33,0.024,172.9
2019-08-02T07:30:10,42.805,6.029,-0.029,-0.016,-0.033,105.0,107.0,98.0,13.4,1505.3,325.0,-0.7,1.9,2470.159,13.33,0.033,241.1
2019-08-02T07:33:11,42.805,6.029,0.0,-0.012,-0.02,104.0,107.0,100.0,13.3,1505.3,325.4,-0.7,1.9,2470.133,13.33,0.012,180.0
2019-08-02T07:36:12,42.805,6.029,-0.015,-0.01,-0.04,104.0,106.0,101.0,13.4,1505.3,323.7,-0.7,1.8,2470.091,13.33,0.018,236.3
2019-08-02T07:39:13,42.805,6.029,-0.016,-0.008,-0.024,103.0,106.0,101.0,13.4,1505.3,326.4,-0.7,1.8,2470.134,13.33,0.017,243.4
2019-08-02T07:42:14,42.805,6.029,0.01,-0.016,-0.001,103.0,105.0,99.0,13.4,1505.3,324.5,-0.8,1.9,2470.115,13.33,0.018,148.0
2019-08-02T07:45:15,42.805,6.029,-0.011,-0.012,-0.015,104.0,107.0,100.0,13.3,1505.3,323.2,-0.7,1.9,2470.14,13.33,0.016,222.5
2019-08-02T07:48:16,42.805,6.029,-0.028,-0.012,-0.032,102.0,105.0,99.0,13.3,1505.3,324.7,-0.7,1.8,2470.116,13.33,0.03,246.8
2019-08-02T07:51:17,42.805,6.029,-0.026,-0.016,-0.004,103.0,105.0,100.0,13.4,1505.3,326.8,-0.7,1.8,2470.102,13.33,0.03,238.4
2019-08-02T07:54:18,42.805,6.029,0.005,-0.014,0.0,103.0,105.0,99.0,13.3,1505.3,326.6,-0.7,1.9,2470.094,13.33,0.014,160.4
2019-08-02T07:57:19,42.805,6.029,-0.03,-0.01,-0.057,104.0,105.0,99.0,13.4,1505.3,323.3,-0.7,1.8,2470.121,13.33,0.031,251.6
2019-08-02T08:00:20,42.805,6.029,-0.014,-0.02,-0.029,103.0,107.0,101.0,13.4,1505.3,328.2,-0.7,1.9,2470.152,13.33,0.024,215.0
2019-08-02T08:03:21,42.805,6.029,-0.051,-0.003,-0.054,103.0,108.0,100.0,13.3,1505.3,324.3,-0.7,1.8,2470.169,13.33,0.051,266.6
2019-08-02T08:06:22,42.805,6.029,-0.023,-0.032,-0.063,103.0,106.0,100.0,13.4,1505.3,326.8,-0.7,1.8,2470.11,13.33,0.039,215.7
2019-08-02T08:09:23,42.805,6.029,-0.006,-0.027,-0.008,105.0,106.0,101.0,13.3,1505.3,328.0,-0.7,1.8,2470.141,13.33,0.027,192.5
2019-08-02T08:12:24,42.805,6.029,-0.001,-0.018,-0.038,104.0,109.0,100.0,13.3,1505.3,325.4,-0.7,1.8,2470.181,13.33,0.018,183.2
2019-08-02T08:15:25,42.805,6.029,0.0,-0.014,-0.018,104.0,107.0,103.0,13.3,1505.3,325.0,-0.7,1.8,2470.161,13.33,0.014,180.0
2019-08-02T08:18:26,42.805,6.029,-0.045,-0.023,-0.037,106.0,107.0,102.0,13.3,1505.3,323.2,-0.7,1.8,2470.134,13.33,0.05,242.9
2019-08-02T08:21:27,42.805,6.029,-0.023,-0.022,-0.049,104.0,108.0,102.0,13.4,1505.3,328.1,-0.7,1.8,2470.14,13.33,0.031,226.3
2019-08-02T08:24:28,42.805,6.029,-0.014,-0.041,0.002,105.0,107.0,100.0,13.4,1505.3,324.0,-0.7,1.8,2470.121,13.33,0.043,198.9
2019-08-02T08:27:29,42.805,6.029,-0.003,0.0,-0.006,106.0,108.0,102.0,13.4,1505.3,326.5,-0.7,1.8,2470.137,13.33,0.003,270.0
2019-08-02T08:30:30,42.805,6.029,-0.037,-0.012,-0.016,106.0,106.0,101.0,13.4,1505.3,328.2,-0.8,1.9,2470.096,13.33,0.038,252.0
2019-08-02T08:33:31,42.805,6.029,-0.012,-0.026,-0.012,106.0,108.0,101.0,13.4,1505.3,326.3,-0.7,1.8,2470.12,13.33,0.028,204.8
2019-08-02T08:36:32,42.805,6.029,-0.019,-0.014,0.01,106.0,107.0,102.0,13.4,1505.3,323.8,-0.7,1.8,2470.1,13.33,0.023,233.6
2019-08-02T08:39:33,42.805,6.029,-0.006,-0.013,-0.002,107.0,107.0,102.0,13.3,1505.3,328.4,-0.7,1.8,2470.123,13.33,0.014,204.8
2019-08-02T08:42:34,42.805,6.029,-0.018,-0.006,-0.038,107.0,108.0,100.0,13.4,1505.3,324.2,-0.7,1.8,2470.089,13.33,0.018,251.6
2019-08-02T08:45:35,42.805,6.029,-0.012,-0.015,-0.032,105.0,107.0,101.0,13.3,1505.3,324.0,-0.7,1.8,2470.121,13.33,0.019,218.7
2019-08-02T08:48:36,42.805,6.029,-0.004,0.013,-0.01,106.0,108.0,101.0,13.3,1505.3,326.4,-0.7,1.8,2470.133,13.33,0.013,342.9
2019-08-02T08:51:37,42.805,6.029,0.006,-0.005,0.001,107.0,106.0,102.0,13.4,1505.3,324.5,-0.7,1.9,2470.083,13.33,0.007,129.8
2019-08-02T08:54:38,42.805,6.029,-0.02,-0.029,-0.018,106.0,108.0,101.0,13.3,1505.3,324.4,-0.7,1.8,2470.091,13.33,0.035,214.6
2019-08-02T08:57:39,42.805,6.029,-0.03,0.003,-0.025,105.0,107.0,102.0,13.4,1505.3,327.7,-0.7,1.8,2470.107,13.33,0.03,275.7
2019-08-02T09:00:40,42.805,6.029,0.0,-0.017,0.009,106.0,107.0,103.0,13.3,1505.3,324.5,-0.7,1.8,2470.142,13.33,0.017,180.0
2019-08-02T09:03:41,42.805,6.029,-0.021,-0.019,0.021,106.0,107.0,102.0,13.4,1505.3,323.9,-0.7,1.8,2470.111,13.33,0.028,227.9
2019-08-02T09:06:42,42.805,6.029,0.002,-0.005,0.011,105.0,105.0,103.0,13.4,1505.3,328.0,-0.7,1.8,2470.085,13.33,0.005,158.2
2019-08-02T09:09:43,42.805,6.029,-0.026,0.003,0.004,105.0,107.0,100.0,13.3,1505.3,326.0,-0.7,1.9,2470.086,13.33,0.026,276.6
2019-08-02T09:12:44,42.805,6.029,-0.014,-0.007,-0.024,105.0,106.0,101.0,13.4,1505.3,326.9,-0.7,1.8,2470.15,13.33,0.015,243.4
2019-08-02T09:15:45,42.805,6.029,-0.005,-0.011,0.012,105.0,105.0,99.0,13.3,1505.3,325.5,-0.7,1.8,2470.112,13.33,0.012,204.4
2019-08-02T09:18:46,42.805,6.029,-0.008,-0.011,-0.007,102.0,105.0,100.0,13.4,1505.3,324.0,-0.7,1.9,2470.093,13.33,0.013,216.0
2019-08-02T09:21:47,42.805,6.029,-0.002,-0.008,0.004,105.0,105.0,101.0,13.4,1505.3,327.0,-0.7,1.9,2470.071,13.33,0.008,194.0
2019-08-02T09:24:48,42.805,6.029,0.011,-0.012,-0.009,106.0,105.0,99.0,13.3,1505.3,326.3,-0.7,1.9,2470.103,13.33,0.016,137.5